User: anonymous   Login
Location: Central Coast
(33.3208°S, 151.2336°E)
Time: 06:12:27
(UTC+10:00)
Language:

Tiangong 2 - Orbit

View from above orbital plane
View from above orbital plane
View from above satellite
View from above satellite

Ground track
Ground track

The orbit data is extracted from the following two-line orbital elements,

1 41765U 16057A   18228.39942394  .00002588  00000-0  36736-4 0  9998
2 41765  42.7853 342.3403 0008391 315.3474 152.6537 15.59231738109420
Epoch (UTC): 16 August 2018 09:35:10
Eccentricity: 0.0008391
inclination: 42.7853°
perigee height: 384 km
apogee height: 395 km
right ascension of ascending node: 342.3403°
argument of perigee: 315.3474°
revolutions per day: 15.59231738
mean anomaly at epoch: 152.6537°
orbit number at epoch: 10942

The dashed part of the orbit path shows where the satellite is in the earth's shadow,  

DLR